TimeCST,TemperatureF,Dew PointF,Humidity,Sea Level PressureIn,VisibilityMPH,Wind Direction,Wind SpeedMPH,Gust SpeedMPH,PrecipitationIn,Events,Conditions,WindDirDegrees,DateUTC
12:04 AM,42.8,41.0,93,30.06,1.0,Calm,Calm,-,N/A,,Mist,0,2013-02-06 06:04:00
12:08 AM,42.8,41.0,93,30.06,0.5,Calm,Calm,-,N/A,Fog,Fog,0,2013-02-06 06:08:00
12:20 AM,42.8,41.0,93,30.06,0.2,Calm,Calm,-,N/A,Fog,Fog,0,2013-02-06 06:20:00
12:53 AM,42.8,41.0,93,30.06,0.2,Calm,Calm,-,N/A,Fog,Fog,0,2013-02-06 06:53:00
1:35 AM,39.2,37.4,93,30.06,0.2,NE,3.5,-,N/A,Fog,Fog,40,2013-02-06 07:35:00
1:44 AM,39.2,39.2,100,30.06,0.5,NE,3.5,-,N/A,Fog,Fog,40,2013-02-06 07:44:00
1:53 AM,39.9,37.9,93,30.07,0.5,East,3.5,-,N/A,Fog,Fog,80,2013-02-06 07:53:00
1:59 AM,42.8,39.2,87,30.07,1.2,East,3.5,-,N/A,,Scattered Clouds,100,2013-02-06 07:59:00
2:03 AM,42.8,39.2,87,30.06,0.8,East,3.5,-,N/A,,Mist,90,2013-02-06 08:03:00
2:09 AM,42.8,39.2,87,30.06,0.2,East,4.6,-,N/A,Fog,Fog,80,2013-02-06 08:09:00
2:17 AM,41.0,39.2,93,30.07,0.2,ENE,3.5,-,N/A,Fog,Fog,70,2013-02-06 08:17:00
2:22 AM,41.0,39.2,93,30.07,0.5,Calm,Calm,-,N/A,Fog,Fog,0,2013-02-06 08:22:00
2:40 AM,41.0,39.2,93,30.07,1.2,NE,4.6,-,N/A,,Scattered Clouds,50,2013-02-06 08:40:00
2:45 AM,41.0,39.2,93,30.07,3.0,NE,4.6,-,N/A,,Scattered Clouds,50,2013-02-06 08:45:00
2:50 AM,42.8,39.2,87,30.07,4.0,NE,4.6,-,N/A,,Mostly Cloudy,50,2013-02-06 08:50:00
2:53 AM,42.1,39.9,92,30.07,4.0,ENE,3.5,-,N/A,,Mostly Cloudy,60,2013-02-06 08:53:00
3:13 AM,42.8,39.2,87,30.07,1.8,East,3.5,-,N/A,,Overcast,80,2013-02-06 09:13:00
3:28 AM,41.0,39.2,93,30.06,3.0,NE,3.5,-,N/A,,Overcast,50,2013-02-06 09:28:00
3:42 AM,42.8,39.2,87,30.06,1.8,Calm,Calm,-,N/A,,Overcast,0,2013-02-06 09:42:00
3:48 AM,42.8,39.2,87,30.06,0.2,ENE,3.5,-,N/A,Fog,Fog,60,2013-02-06 09:48:00
3:53 AM,42.1,39.9,92,30.06,0.2,ENE,3.5,-,N/A,Fog,Fog,70,2013-02-06 09:53:00
4:53 AM,42.1,39.9,92,30.08,0.2,ENE,5.8,-,N/A,Fog,Fog,60,2013-02-06 10:53:00
4:59 AM,42.8,41.0,93,30.08,0.5,ENE,4.6,-,N/A,Fog,Fog,60,2013-02-06 10:59:00
5:09 AM,42.8,41.0,93,30.09,0.2,ENE,4.6,-,N/A,Fog,Fog,70,2013-02-06 11:09:00
5:49 AM,41.0,39.2,93,30.09,0.2,ENE,5.8,-,N/A,Fog,Fog,60,2013-02-06 11:49:00
5:53 AM,41.0,39.9,96,30.10,0.2,ENE,6.9,-,N/A,Fog,Fog,60,2013-02-06 11:53:00
5:59 AM,42.8,39.2,87,30.10,0.5,ENE,6.9,-,N/A,Fog,Fog,60,2013-02-06 11:59:00
6:13 AM,42.8,39.2,87,30.09,1.0,NE,8.1,-,N/A,,Mostly Cloudy,50,2013-02-06 12:13:00
6:19 AM,42.8,39.2,87,30.09,3.0,NE,6.9,-,N/A,,Mostly Cloudy,50,2013-02-06 12:19:00
6:53 AM,42.1,39.9,92,30.12,4.0,ENE,6.9,-,N/A,,Scattered Clouds,70,2013-02-06 12:53:00
7:53 AM,43.0,39.0,86,30.12,10.0,NE,6.9,-,N/A,,Clear,50,2013-02-06 13:53:00
8:53 AM,46.9,39.9,77,30.12,10.0,ENE,11.5,-,N/A,,Scattered Clouds,60,2013-02-06 14:53:00
9:53 AM,52.0,37.9,59,30.13,10.0,East,10.4,-,N/A,,Clear,90,2013-02-06 15:53:00
10:53 AM,55.0,37.9,53,30.12,10.0,ENE,13.8,-,N/A,,Clear,60,2013-02-06 16:53:00
11:53 AM,57.0,39.0,51,30.10,10.0,East,9.2,-,N/A,,Clear,100,2013-02-06 17:53:00
12:53 PM,61.0,41.0,48,30.06,10.0,ENE,12.7,-,N/A,,Clear,70,2013-02-06 18:53:00
1:53 PM,63.0,42.1,46,30.02,10.0,SE,11.5,18.4,N/A,,Clear,130,2013-02-06 19:53:00
2:53 PM,63.0,41.0,45,30.00,9.0,ESE,10.4,-,N/A,,Mostly Cloudy,110,2013-02-06 20:53:00
3:53 PM,64.0,39.0,40,30.00,10.0,SE,8.1,17.3,N/A,,Mostly Cloudy,130,2013-02-06 21:53:00
4:53 PM,60.1,42.1,51,29.98,10.0,East,8.1,-,N/A,,Scattered Clouds,100,2013-02-06 22:53:00
5:53 PM,57.9,44.1,60,29.98,10.0,East,11.5,-,N/A,,Clear,90,2013-02-06 23:53:00
6:53 PM,55.0,44.1,67,29.99,10.0,ENE,10.4,-,N/A,,Mostly Cloudy,70,2013-02-07 00:53:00
7:53 PM,53.1,44.1,71,29.99,10.0,East,6.9,-,N/A,,Clear,90,2013-02-07 01:53:00
8:53 PM,50.0,43.0,77,29.99,10.0,ENE,6.9,-,N/A,,Clear,70,2013-02-07 02:53:00
9:53 PM,48.0,43.0,83,30.00,10.0,ENE,5.8,-,N/A,,Clear,70,2013-02-07 03:53:00
10:53 PM,48.9,44.1,83,30.00,10.0,ENE,6.9,-,N/A,,Scattered Clouds,70,2013-02-07 04:53:00
11:00 PM,48.2,44.6,87,29.99,10.0,ENE,8.1,-,N/A,,Mostly Cloudy,60,2013-02-07 05:00:00
11:53 PM,51.1,45.0,80,29.98,10.0,ENE,10.4,-,N/A,,Overcast,70,2013-02-07 05:53:00